Somerset, KY

12:52 PM EST on February 22, 2017 (GMT -0500)
Somerset-Pulaski County-Wilson

Weather History for KSME - January, 2014

Change the Weather History Date:

Thursday, January 9, 2014

  Actual Average Record
Temperature  
Mean Temperature 34 °F -  
Max Temperature 42 °F 45 °F 62 °F (2000)
Min Temperature 26 °F 27 °F 3 °F (2011)
Degree Days  
Heating Degree Days 31    
Moisture  
Dew Point 24 °F    
Average Humidity 70    
Maximum Humidity 93    
Minimum Humidity 42    
Precipitation  
Precipitation 0.04 in - - ()
Sea Level Pressure  
Sea Level Pressure 30.42 in    
Wind  
Wind Speed 1 mph (ESE)    
Max Wind Speed 6 mph    
Max Gust Speed -    
Visibility 10 miles    
Events Rain    
Averages and records for this station are not official NWS values.
T = Trace of Precipitation, MM = Missing Value Source: NWS Daily Summary

Daily Weather History Graph

Daily Weather History Graph

Search for Another Location

Airport or City:

Trip Planner

Search our weather history database for the weather conditions in past years. The results will help you decide how hot, cold, wet, or windy it might be!

Date:

Astronomy

Jan. 09, 2014 Rise Set
Actual Time 7:52 AM EST 5:39 PM EST
Civil Twilight 7:23 AM EST 6:08 PM EST
Nautical Twilight 6:51 AM EST 6:40 PM EST
Astronomical Twilight 6:19 AM EST 7:11 PM EST
Moon 1:02 PM EST (1/9) 2:02 AM EST (1/9)
Length of Visible Light 10h 44m
Length of Day
9h 47m
Waxing Gibbous, 66% of the Moon is Illuminated
Jan 9
Waxing Gibbous
Jan 15
Full
Jan 24
Last Quarter
Jan 30
New
Feb 6
First Quarter

Hourly Weather History & Observations

Time (EST) Temp. Windchill Dew Point Humidity Pressure Visibility Wind Dir Wind Speed Gust Speed Precip Events Conditions
12:15 AM 28.4 °F - 19.4 °F 69% 30.46 in 10.0 mi Calm Calm - N/A   Overcast
12:35 AM 30.2 °F 25.4 °F 21.2 °F 69% 30.47 in 10.0 mi North 4.6 mph - N/A   Overcast
12:55 AM 28.4 °F - 23.0 °F 80% 30.46 in 10.0 mi Calm Calm - N/A   Overcast
1:15 AM 28.4 °F - 21.2 °F 74% 30.46 in 10.0 mi Calm Calm - N/A   Overcast
1:35 AM 28.4 °F - 21.2 °F 74% 30.46 in 10.0 mi Calm Calm - N/A   Overcast
1:55 AM 28.4 °F - 21.2 °F 74% 30.46 in 10.0 mi Calm Calm - N/A   Overcast
2:15 AM 28.4 °F - 21.2 °F 74% 30.47 in 10.0 mi Calm Calm - N/A   Overcast
2:35 AM 30.2 °F - 21.2 °F 69% 30.47 in 10.0 mi Calm Calm - N/A   Overcast
2:55 AM 30.2 °F - 21.2 °F 69% 30.47 in 10.0 mi Calm Calm - N/A   Overcast
3:15 AM 28.4 °F 24.6 °F 21.2 °F 74% 30.48 in 10.0 mi NNW 3.5 mph - N/A   Overcast
3:35 AM 28.4 °F - 21.2 °F 74% 30.47 in 10.0 mi Calm Calm - N/A   Overcast
3:55 AM 28.4 °F - 21.2 °F 74% 30.47 in 10.0 mi Calm Calm - N/A   Mostly Cloudy
4:15 AM 28.4 °F - 21.2 °F 74% 30.47 in 10.0 mi Calm Calm - N/A   Scattered Clouds
4:35 AM 28.4 °F - 21.2 °F 74% 30.48 in 10.0 mi Calm Calm - N/A   Scattered Clouds
4:55 AM 28.4 °F - 23.0 °F 80% 30.48 in 10.0 mi Calm Calm - N/A   Scattered Clouds
5:15 AM 28.4 °F - 23.0 °F 80% 30.47 in 10.0 mi Calm Calm - N/A   Scattered Clouds
5:35 AM 28.4 °F - 23.0 °F 80% 30.47 in 10.0 mi Calm Calm - N/A   Scattered Clouds
5:55 AM 28.4 °F - 21.2 °F 74% 30.47 in 10.0 mi Calm Calm - N/A   Scattered Clouds
6:15 AM 28.4 °F - 23.0 °F 80% 30.47 in 10.0 mi Calm Calm - N/A   Clear
6:35 AM 28.4 °F - 23.0 °F 80% 30.47 in 10.0 mi Calm Calm - N/A   Clear
6:55 AM 28.4 °F - 23.0 °F 80% 30.49 in 10.0 mi Calm Calm - N/A   Clear
7:15 AM 28.4 °F - 21.2 °F 74% 30.49 in 10.0 mi Calm Calm - N/A   Clear
7:35 AM 28.4 °F - 21.2 °F 74% 30.49 in 10.0 mi Calm Calm - N/A   Scattered Clouds
7:55 AM 26.6 °F - 21.2 °F 80% 30.49 in 10.0 mi Calm Calm - N/A   Scattered Clouds
8:15 AM 28.4 °F - 23.0 °F 80% 30.48 in 10.0 mi Calm Calm - N/A   Clear
8:35 AM 28.4 °F 24.6 °F 21.2 °F 74% 30.49 in 10.0 mi SE 3.5 mph - N/A   Clear
8:55 AM 30.2 °F - 21.2 °F 69% 30.49 in 10.0 mi Calm Calm - N/A   Clear
9:15 AM 32.0 °F - 21.2 °F 64% 30.49 in 10.0 mi Calm Calm - N/A   Clear
9:35 AM 32.0 °F - 21.2 °F 64% 30.49 in 10.0 mi Calm Calm - N/A   Scattered Clouds
9:55 AM 32.0 °F - 21.2 °F 64% 30.49 in 10.0 mi Calm Calm - N/A   Mostly Cloudy
10:15 AM 32.0 °F - 21.2 °F 64% 30.49 in 10.0 mi Calm Calm - N/A   Mostly Cloudy
10:35 AM 33.8 °F 30.8 °F 21.2 °F 60% 30.48 in 10.0 mi SSE 3.5 mph - N/A   Mostly Cloudy
10:55 AM 33.8 °F - 21.2 °F 60% 30.48 in 10.0 mi Calm Calm - N/A   Overcast
11:15 AM 35.6 °F 32.8 °F 21.2 °F 56% 30.46 in 10.0 mi ESE 3.5 mph - N/A   Overcast
11:35 AM 35.6 °F 32.8 °F 19.4 °F 52% 30.45 in 10.0 mi ESE 3.5 mph - N/A   Overcast
11:55 AM 37.4 °F 33.8 °F 19.4 °F 48% 30.44 in 10.0 mi SE 4.6 mph - N/A   Overcast
12:15 PM 37.4 °F - 21.2 °F 52% 30.43 in 10.0 mi Calm Calm - N/A   Overcast
12:35 PM 41.0 °F 39.0 °F 19.4 °F 42% 30.42 in 10.0 mi SE 3.5 mph - N/A   Overcast
12:55 PM 39.2 °F 37.0 °F 19.4 °F 45% 30.40 in 10.0 mi East 3.5 mph - N/A   Overcast
1:15 PM 39.2 °F 35.9 °F 19.4 °F 45% 30.38 in 10.0 mi ESE 4.6 mph - N/A   Overcast
1:35 PM 41.0 °F 37.1 °F 19.4 °F 42% 30.36 in 10.0 mi ESE 5.8 mph - N/A   Overcast
1:55 PM 41.0 °F 38.0 °F 19.4 °F 42% 30.37 in 10.0 mi ESE 4.6 mph - N/A   Overcast
2:15 PM 41.0 °F 39.0 °F 23.0 °F 49% 30.35 in 10.0 mi East 3.5 mph - N/A   Overcast
2:35 PM 42.8 °F - 21.2 °F 42% 30.35 in 10.0 mi Calm Calm - N/A   Overcast
2:55 PM 42.8 °F - 23.0 °F 46% 30.35 in 10.0 mi Calm Calm - N/A   Overcast
3:35 PM 42.8 °F - 21.2 °F 42% 30.36 in 10.0 mi Calm Calm - N/A   Overcast
3:55 PM 42.8 °F - 26.6 °F 53% 30.35 in 10.0 mi Calm Calm - N/A   Overcast
4:15 PM 42.8 °F - 24.8 °F 49% 30.37 in 10.0 mi Calm Calm - N/A   Overcast
4:35 PM 41.0 °F 38.0 °F 24.8 °F 53% 30.38 in 10.0 mi NW 4.6 mph - N/A   Overcast
4:55 PM 39.2 °F 35.9 °F 24.8 °F 56% 30.39 in 10.0 mi NW 4.6 mph - N/A   Overcast
5:15 PM 39.2 °F 35.9 °F 24.8 °F 56% 30.39 in 10.0 mi NNW 4.6 mph - N/A   Overcast
6:15 PM 35.6 °F 32.8 °F 28.4 °F 75% 30.37 in 5.0 mi East 3.5 mph - 0.01 in Rain Rain
6:35 PM 35.6 °F - 30.2 °F 81% 30.36 in 7.0 mi Calm Calm - 0.03 in Rain Light Rain
6:55 PM 33.8 °F - 32.0 °F 93% 30.36 in 10.0 mi Calm Calm - 0.03 in   Light Drizzle
7:15 PM 33.8 °F - 32.0 °F 93% 30.35 in 10.0 mi Calm Calm - N/A   Overcast
7:35 PM 33.8 °F - 32.0 °F 93% 30.36 in 10.0 mi Calm Calm - N/A   Overcast
7:55 PM 33.8 °F - 32.0 °F 93% 30.35 in 10.0 mi Calm Calm - N/A   Overcast
8:15 PM 33.8 °F 30.8 °F 32.0 °F 93% 30.35 in 10.0 mi SE 3.5 mph - N/A Rain Light Rain
8:35 PM 35.6 °F - 30.2 °F 81% 30.34 in 10.0 mi Calm Calm - N/A Rain Light Rain
8:55 PM 35.6 °F - 30.2 °F 81% 30.34 in 10.0 mi Calm Calm - N/A   Overcast
9:15 PM 35.6 °F 31.7 °F 30.2 °F 81% 30.34 in 10.0 mi SE 4.6 mph - N/A   Overcast
9:35 PM 35.6 °F - 32.0 °F 87% 30.33 in 10.0 mi Calm Calm - N/A   Overcast
9:55 PM 37.4 °F - 30.2 °F 75% 30.33 in 10.0 mi Calm Calm - N/A   Overcast
10:15 PM 37.4 °F 34.9 °F 30.2 °F 75% 30.33 in 10.0 mi South 3.5 mph - N/A   Overcast
10:35 PM 37.4 °F 34.9 °F 32.0 °F 81% 30.33 in 10.0 mi WSW 3.5 mph - N/A   Drizzle
10:55 PM 35.6 °F - 32.0 °F 87% 30.32 in 10.0 mi Calm Calm - N/A Rain Light Rain
11:15 PM 35.6 °F - 32.0 °F 87% 30.31 in 7.0 mi Calm Calm - 0.01 in Rain Light Rain
11:35 PM 35.6 °F - 33.8 °F 93% 30.30 in 10.0 mi Calm Calm - 0.01 in   Light Drizzle
11:55 PM 35.6 °F - 33.8 °F 93% 30.30 in 10.0 mi Calm Calm - 0.01 in   Overcast